Regional Weather Roundup
Issued by NWS

Home | Current Version | Previous Version | Graphics & Text | Print | Product List | Glossary On
Versions: 1 2 3 4 5 6 7 8 9 10 11 12 13 14 15 16 17 18 19 20 21 22 23 24 25 26 27 28 29 30 31 32 33 34 35 36 37 38 39 40 41 42 43 44 45 46 47 48 49 50
000
ASUS45 KSLC 190310
RWRUT

UTAH REGIONAL WEATHER ROUNDUP
NATIONAL WEATHER SERVICE SALT LAKE CITY UT
800 PM MST WED JAN 18 2017

UTZ001>011-023>025-190400-

NORTHERN UTAH

CITY           SKY/WX    TMP DP  RH WIND       PRES   REMARKS
BRIGHAM CITY     N/A     22  17  82 CALM      29.95F
HILL AFB       MOCLDY    19  16  86 S5        29.92F WCI  13
LOGAN          MOCLDY    13   9  84 N9        29.94F FOG     WCI   1
OGDEN          MOCLDY    21  17  84 CALM      29.93F FOG
SALT LAKE CITY PTCLDY    24  21  88 CALM      29.94F FOG
TOOELE VALLEY  CLOUDY    27  23  86 CALM      29.94F FOG
WENDOVER       CLOUDY    25  19  80 SE5       29.93F WCI  19
HEBER CITY     CLEAR      7   3  85 SE3       29.90F
WEST JORDAN    PTCLDY    23  23 100 E3        29.94S

$$

UTZ011>015-024>027-190400-

CENTRAL/NORTHEAST UTAH

CITY           SKY/WX    TMP DP  RH WIND       PRES   REMARKS
PROVO AIRPORT  CLEAR     25  22  88 CALM      29.95S FOG
MOAB/CANYONLAN CLEAR     30  27  88 W3        29.98F
DELTA          MOCLDY    32  25  74 E5        29.90F WCI  27
PRICE          PTCLDY    17  12  80 N7        29.99S WCI   8
RICHFIELD      CLEAR     30  25  80 E5        29.94F WCI  25
ROOSEVELT      CLOUDY     9   5  85 CALM      30.09R
VERNAL         CLOUDY     7   3  84 NW3       30.05F

$$

UTZ013>016-019>022-027-190400-

SOUTHERN UTAH

CITY           SKY/WX    TMP DP  RH WIND       PRES   REMARKS
BRYCE CANYON   CLEAR      6   2  83 SW6       30.00R WCI  -4
CEDAR CITY     PTCLDY    41  15  35 SW20G28   29.93F
MILFORD        PTCLDY    36  24  62 S16       29.93R WCI  26
ST GEORGE      PTCLDY    45  30  57 CALM      30.01S
HANKSVILLE     CLEAR     32  28  86 MISG      30.02R
KANAB          CLEAR     32  27  80 CALM      30.05S
BLANDING       CLEAR     31  25  80 N3        30.07S

$$

REGIONAL REPORTS     COLORADO/ARIZONA

CITY           SKY/WX    TMP DP  RH WIND       PRES   REMARKS
CRAIG, CO      CLOUDY     9   3  77 W3        29.98R
GRAND JUNCTION CLOUDY    30  29  96 CALM      30.00R
RIFLE, CO      CLOUDY    30  24  78 CALM      29.98R
MONTROSE, CO   CLOUDY    31  26  82 SE7       30.01R WCI  24
CORTEZ, CO     CLEAR     28  27  96 E7        30.02S WCI  21
COLORADO CITY    N/A     30  27  86 SE3       30.04F
PAGE, AZ       CLEAR     41  28  60 SE3       29.98S
GRAND CANYON   CLEAR     25  23  92 CALM      30.05S
KINGMAN, AZ    PTCLDY    43  26  51 S8        30.03F
FLAGSTAFF, AZ  CLEAR     32  27  81 W5        30.06S WCI  27

$$

REGIONAL REPORTS    NEVADA/IDAHO/WYOMING

CITY           SKY/WX    TMP DP  RH WIND       PRES   REMARKS
LAS VEGAS, NV  CLOUDY    53  26  35 CALM      29.94F
ELY, NY        CLOUDY    34  20  56 S15       29.88F WCI  24
ELKO, NV       CLOUDY    27  18  69 E7        29.81S WCI  19
POCATELLO, ID  CLOUDY    21  16  81 CALM      29.84F
BURLEY, ID     MIX PCPN  30  22  72 NE5       29.78F WCI  25
FORT BRIDGER,    N/A     18   8  64 SW7       29.90F WCI   9
EVANSTON, WY   CLOUDY    24   8  50 SW7       29.87F WCI  16
ROCK SPRINGS,  CLOUDY     7   2  80 MISG      29.89F

$$



USA.gov is the U.S. government's official web portal to all federal, state and local government web resources and services.